Location: Cicognara
(44.9500°N, 10.4667°E)
Time: 14:37:29
(UTC+00:00)

USA 229 - Pass Details

Date: 20 June 2021
Orbit: 956 x 1256 km, 63.5° (Epoch: 25 July)

Event Time Altitude Azimuth Distance (km) Brightness Sun altitude
Exits shadow 23:38:44 38° 207° (SSW) 1,482 4.0 -21.5°
Maximum altitude 23:41:27 81° 125° (SE) 1,031 3.5 -21.4°
Drops below altitude 10° 23:48:16 10° 39° (NE) 2,905 6.8 -21.3°
Sets 23:51:01 0° 39° (NE) 3,909 7.6 -21.2°
